This is the latest recevied weather packets stored in our database for station/object DG4MJS-10. If no packets are shown the sender has not sent any weather packets the latest 10 day(s).
| Time | Temp. | Humidity | Pressure | Rain* | Wind** | Luminosity | Snow |
|---|---|---|---|---|---|---|---|
| 1777574697 | 13.89° C | 32% | 1024.4 hPa | - | - | - | - |
| 1777573797 | 14.44° C | 29% | 1024.3 hPa | - | - | - | - |
| 1777572897 | 15° C | 27% | 1024.1 hPa | - | - | - | - |
| 1777571997 | 15° C | 28% | 1024 hPa | - | - | - | - |
| 1777571097 | 15.56° C | 26% | 1023.9 hPa | - | - | - | - |
| 1777570196 | 16.11° C | 25% | 1024 hPa | - | - | - | - |
| 1777569296 | 16.67° C | 24% | 1023.9 hPa | - | - | - | - |
| 1777568396 | 16.67° C | 22% | 1023.9 hPa | - | - | - | - |
| 1777567496 | 17.22° C | 23% | 1023.9 hPa | - | - | - | - |
| 1777566596 | 17.22° C | 24% | 1024 hPa | - | - | - | - |
| 1777565698 | 17.22° C | 23% | 1023.9 hPa | - | - | - | - |
| 1777564798 | 17.22° C | 23% | 1023.7 hPa | - | - | - | - |
| 1777563898 | 17.22° C | 22% | 1023.7 hPa | - | - | - | - |
| 1777562998 | 17.78° C | 22% | 1023.7 hPa | - | - | - | - |
| 1777562098 | 17.78° C | 23% | 1023.7 hPa | - | - | - | - |
| 1777561197 | 17.78° C | 22% | 1023.8 hPa | - | - | - | - |
| 1777560297 | 17.22° C | 21% | 1023.8 hPa | - | - | - | - |
| 1777559397 | 17.78° C | 23% | 1023.7 hPa | - | - | - | - |
| 1777558497 | 18.33° C | 24% | 1023.8 hPa | - | - | - | - |
| 1777557597 | 18.33° C | 20% | 1023.8 hPa | - | - | - | - |
| 1777556697 | 17.78° C | 20% | 1024 hPa | - | - | - | - |
| 1777555797 | 18.33° C | 21% | 1024.1 hPa | - | - | - | - |
| 1777554897 | 16.11° C | 24% | 1024.3 hPa | - | - | - | - |
| 1777553997 | 15.56° C | 25% | 1024.4 hPa | - | - | - | - |
| 1777553097 | 15.56° C | 26% | 1024.5 hPa | - | - | - | - |
* Rain since midnight (hover to see other rain measurements)
** Current wind speed in m/s (hover to see current wind gust speed)